CAPE
1195 1138 1057 960 906 899 902 932 979 1031 1068 1168 1336 1496 1680 1857 1907 1935 2028 2052 2070 2102 2147 2161 2154 2116 1940 1585 942 71 9 0 8 3 4 6 3 2 0 0 0 0
1200 1161 1102 1040 977 936 912 903 940 967 1024 1115 1284 1402 1561 1701 1806 1904 1962 2008 2088 2117 2164 2163 2115 1995 1637 1170 638 0 2 8 8 19 4 3 4 0 0 0 0 0
1175 1168 1140 1101 1064 1018 971 941 928 950 961 1020 1198 1354 1468 1598 1698 1840 1901 1958 1993 2063 2142 2119 2040 1908 1626 987 263 6 9 5 12 17 18 3 5 0 0 0 0 0
1162 1160 1144 1131 1090 1051 1022 989 969 971 954 960 1132 1324 1423 1528 1626 1734 1812 1874 1897 1940 2028 2044 1964 1853 1641 1113 562 258 15 10 18 18 29 14 4 0 0 0 0 0
1172 1162 1146 1128 1112 1070 1047 1024 1010 999 995 989 1056 1264 1431 1468 1565 1646 1731 1796 1820 1868 1918 1928 1860 1792 1641 1240 611 25 18 19 13 12 22 28 10 3 0 0 0 0
1176 1160 1151 1136 1106 1104 1074 1060 1048 1048 1048 1052 1044 1216 1338 1430 1518 1600 1671 1706 1752 1807 1846 1827 1765 1710 1582 1327 847 406 288 249 19 10 14 28 23 8 3 0 0 0
1188 1166 1161 1142 1135 1116 1108 1100 1104 1112 1103 1111 1082 1144 1280 1363 1468 1554 1612 1621 1650 1689 1756 1772 1722 1645 1536 1318 1020 780 588 490 446 122 19 20 25 8 2 0 0 0
1220 1192 1180 1170 1163 1156 1148 1151 1172 1192 1200 1175 1144 1100 1213 1306 1399 1506 1559 1582 1581 1614 1684 1734 1692 1618 1492 1315 1155 988 840 720 656 577 402 17 10 18 6 0 0 0
1241 1236 1230 1226 1211 1198 1193 1194 1209 1240 1250 1248 1211 1158 1172 1248 1341 1427 1504 1533 1543 1581 1640 1679 1654 1606 1523 1416 1244 1122 985 827 749 701 626 532 122 11 7 1 0 0
1256 1268 1279 1279 1272 1257 1243 1238 1238 1256 1296 1299 1300 1245 1232 1266 1315 1387 1446 1482 1510 1560 1608 1628 1621 1572 1531 1499 1393 1231 1095 888 700 628 650 634 527 34 0 0 0 0
1293 1308 1324 1332 1336 1330 1324 1300 1292 1296 1306 1346 1344 1339 1323 1333 1344 1376 1428 1463 1504 1562 1599 1622 1622 1586 1542 1520 1454 1313 1192 1068 797 578 550 588 552 307 7 0 0 1
1308 1343 1371 1402 1410 1419 1406 1392 1393 1374 1376 1377 1376 1398 1405 1399 1420 1424 1458 1507 1553 1586 1601 1613 1586 1551 1540 1513 1466 1355 1234 1184 1098 787 496 448 405 4 4 0 0 0
1292 1346 1408 1454 1535 1498 1494 1494 1486 1481 1468 1454 1438 1444 1454 1464 1458 1465 1471 1506 1562 1585 1606 1597 1550 1515 1502 1478 1440 1344 1243 1198 1167 1059 754 422 324 7 0 2 0 0
1428 1426 1409 1457 1526 1652 1647 1582 1584 1582 1571 1546 1543 1515 1502 1488 1496 1498 1511 1508 1530 1550 1559 1550 1521 1505 1486 1458 1421 1344 1268 1242 1219 1147 988 696 435 124 114 472 493 398
1608 1592 1564 1586 1641 1694 1744 1748 1738 1710 1680 1667 1646 1637 1600 1564 1530 1497 1494 1502 1508 1517 1524 1519 1530 1534 1530 1474 1410 1348 1320 1318 1304 1221 1115 1008 835 599 516 546 582 485
1737 1786 1780 1743 1726 1740 1794 1837 1804 1830 1794 1787 1768 1749 1717 1684 1634 1585 1540 1521 1508 1519 1543 1554 1565 1568 1571 1513 1421 1368 1366 1376 1369 1310 1207 1133 1086 962 774 635 601 561
1802 1897 1950 1931 1898 1876 1864 1891 1907 1882 1884 1885 1870 1840 1806 1769 1723 1684 1648 1603 1578 1548 1562 1578 1597 1612 1607 1556 1485 1443 1426 1433 1429 1386 1260 1150 1106 1091 1004 808 678 648
1852 1943 2031 2082 2069 2051 2022 1988 1990 2000 2027 1953 1946 1920 1882 1842 1811 1774 1726 1696 1661 1649 1650 1624 1609 1608 1612 1594 1559 1520 1504 1519 1524 1490 1369 1189 1119 1118 1047 905 792 754
1895 1982 2073 2155 2195 2204 2172 2139 2118 2104 2102 2091 2019 2005 1966 1922 1882 1844 1822 1789 1762 1740 1735 1720 1701 1677 1656 1639 1623 1586 1565 1578 1589 1573 1486 1347 1296 1266 1231 1162 1032 968
1950 2022 2109 2188 2262 2288 2286 2274 2245 2225 2199 2111 2110 2079 2042 2008 1964 1928 1905 1890 1864 1846 1827 1759 1748 1757 1753 1720 1667 1619 1597 1627 1658 1626 1544 1470 1446 1446 1474 1465 1361 1265
2040 2101 2158 2223 2291 2340 2362 2375 2356 2345 2249 2208 2180 2165 2146 2119 2073 2036 2020 2003 1965 1949 1919 1889 1836 1805 1798 1743 1703 1678 1661 1679 1694 1667 1625 1594 1588 1605 1641 1618 1531 1474
2156 2198 2240 2287 2340 2393 2434 2450 2450 2440 2355 2325 2293 2276 2251 2253 2216 2149 2137 2097 2072 2052 2024 1996 1926 1866 1839 1806 1776 1767 1744 1769 1792 1786 1761 1732 1724 1751 1738 1668 1619 1606
2277 2312 2347 2386 2417 2451 2500 2530 2527 2470 2435 2417 2398 2394 2346 2321 2304 2278 2255 2246 2189 2149 2120 2066 2013 1974 1934 1906 1893 1875 1852 1876 1897 1885 1855 1846 1862 1844 1799 1756 1692 1719
2392 2389 2406 2456 2512 2536 2576 2602 2573 2533 2520 2502 2482 2462 2468 2409 2396 2388 2382 2349 2275 2239 2204 2126 2063 2040 2026 1997 1980 1956 1938 1954 1964 1958 1935 1938 1940 1905 1893 1870 2013 1992
2534 2544 2528 2537 2628 2643 2642 2666 2607 2661 2615 2582 2559 2546 2526 2476 2480 2439 2447 2422 2362 2275 2232 2202 2134 2109 2080 2060 2010 2003 1997 2007 2020 2002 1985 1975 1990 2032 1980 2075 2247 2198
2645 2696 2718 2720 2748 2742 2665 2659 2668 2670 2670 2656 2645 2640 2594 2562 2555 2506 2529 2468 2424 2368 2290 2226 2174 2152 2125 2090 2066 2063 2056 2086 2085 2073 2082 2057 2094 2142 2243 2330 2423 2371
Wind_Speed
8 8 7 8 9 9 9 9 8 8 8 9 10 11 12 12 13 11 8 7 7 7 7 8 8 9 10 11 12 nan nan nan nan nan nan nan nan nan nan nan nan nan
9 9 8 9 10 10 10 9 10 10 10 10 11 13 13 14 15 14 11 9 8 7 7 8 8 10 11 11 12 nan nan nan nan nan nan nan nan nan nan nan nan nan
11 11 11 11 11 11 11 11 11 11 12 13 13 15 15 15 16 16 14 11 9 8 8 7 9 9 10 10 12 nan nan nan nan nan nan nan nan nan nan nan nan nan
12 12 12 13 13 13 14 14 13 12 13 14 14 15 17 18 19 18 16 14 11 10 9 9 8 8 9 10 11 11 nan nan nan nan nan nan nan nan nan nan nan nan
13 13 13 14 15 16 17 15 14 13 13 13 15 18 19 20 20 19 18 15 13 12 11 10 8 7 8 9 11 nan nan nan nan nan nan nan nan nan nan nan nan nan
15 15 15 16 16 18 18 16 16 15 14 15 17 19 18 20 21 21 20 17 15 14 13 12 9 6 7 9 11 12 13 14 nan nan nan nan nan nan nan nan nan nan
16 16 15 16 17 17 17 18 18 18 17 17 19 19 20 21 22 21 20 18 16 14 13 12 9 6 6 9 11 12 13 13 14 17 nan nan nan nan nan nan nan nan
15 15 16 17 16 17 16 18 19 20 20 21 19 19 21 22 22 21 20 19 17 14 14 13 10 7 7 9 11 12 12 12 13 17 18 nan nan nan nan nan nan nan
14 14 15 15 15 16 16 18 20 22 23 21 21 21 21 21 21 20 19 19 17 15 15 14 12 9 8 9 11 12 13 13 14 17 19 20 23 nan nan nan nan nan
12 12 13 14 14 15 16 18 21 24 25 22 23 24 23 21 21 20 19 19 17 16 15 15 13 10 9 10 12 13 13 14 15 18 19 21 23 nan nan nan nan nan
13 13 13 13 13 15 16 20 22 25 26 24 25 24 24 22 20 19 18 18 17 16 16 15 13 11 11 12 12 12 13 14 16 18 20 22 24 27 nan nan nan nan
15 14 14 13 13 13 15 18 21 23 25 26 26 25 24 21 19 18 17 17 16 16 16 15 13 12 13 14 14 14 13 14 16 18 20 23 24 nan nan nan nan nan
18 18 15 13 12 13 15 16 18 21 24 25 26 24 22 20 18 17 16 16 16 17 16 16 13 12 14 15 15 15 15 15 17 19 20 21 22 nan nan nan nan nan
19 19 18 16 14 15 16 16 18 19 21 23 24 21 19 18 19 17 16 17 16 16 16 16 14 13 14 16 16 16 16 16 18 20 20 20 21 23 24 24 25 26
18 18 18 19 18 18 18 18 19 20 21 23 23 21 19 19 20 20 19 17 16 17 17 16 13 13 14 17 18 18 18 19 20 21 20 19 20 22 22 24 25 27
17 19 20 21 21 21 20 20 21 22 22 22 22 22 21 22 23 22 20 18 17 17 18 16 13 13 15 20 21 21 21 22 23 21 20 20 21 21 23 26 27 28
18 19 21 23 23 22 22 23 23 23 23 23 23 23 23 24 25 23 21 20 18 19 18 15 13 14 17 22 23 25 24 25 25 22 20 21 21 23 25 27 28 29
19 21 22 23 24 24 25 26 25 25 25 25 25 25 25 25 25 23 23 22 21 21 19 16 14 14 20 23 25 27 28 27 25 23 21 20 21 24 25 27 29 30
18 20 21 23 25 26 26 27 27 27 26 26 26 27 28 27 25 25 24 23 22 21 18 17 16 16 21 24 26 27 28 28 25 23 21 21 22 24 26 28 30 31
19 19 20 22 26 28 29 28 28 27 27 28 27 28 28 27 26 26 25 24 23 22 20 19 16 19 23 25 26 27 27 27 24 23 21 22 24 25 26 28 30 33
19 18 19 21 25 29 30 30 29 27 27 27 28 30 30 28 27 27 26 25 24 24 22 20 19 23 25 26 26 27 28 27 23 22 21 22 24 25 27 28 30 32
19 19 20 22 25 28 30 30 31 30 29 28 28 27 28 27 26 26 26 26 26 26 24 21 21 27 27 27 27 28 30 26 22 21 21 22 23 26 27 28 30 33
20 20 22 24 26 28 30 31 31 31 30 30 29 28 29 29 28 27 27 27 28 28 26 22 22 28 29 28 28 30 31 25 23 21 21 23 24 27 28 29 31 34
24 24 25 25 26 27 29 30 30 31 32 33 32 31 29 28 28 27 27 27 28 28 26 24 23 30 31 30 31 33 32 27 24 23 22 23 24 27 29 30 33 40
26 26 26 26 26 27 28 29 30 30 32 35 33 32 29 29 29 28 27 28 28 27 28 26 27 31 32 32 33 35 33 28 28 25 23 24 27 29 31 31 33 37
28 27 27 27 27 28 30 30 32 32 32 34 33 33 32 31 30 29 28 28 30 29 32 31 30 35 34 34 36 37 36 33 32 28 25 27 29 31 32 32 35 36
Wind_Direction
304 302 312 296 293 292 291 295 288 292 297 299 308 315 321 320 310 311 309 304 313 316 316 323 333 339 343 347 346 nan nan nan nan nan nan nan nan nan nan nan nan nan
308 302 290 285 282 282 284 291 291 292 297 299 305 309 311 305 312 311 303 303 302 311 299 312 323 334 339 341 335 nan nan nan nan nan nan nan nan nan nan nan nan nan
299 295 295 292 288 292 291 281 281 285 290 300 303 302 304 301 302 304 298 295 294 298 291 303 315 324 335 336 328 nan nan nan nan nan nan nan nan nan nan nan nan nan
295 297 294 292 285 283 278 275 278 278 282 286 297 300 299 297 301 302 298 292 278 281 283 286 311 313 328 328 320 326 nan nan nan nan nan nan nan nan nan nan nan nan
289 285 281 279 279 278 276 281 286 284 286 291 292 291 294 297 299 298 295 291 283 274 278 283 293 312 322 319 315 nan nan nan nan nan nan nan nan nan nan nan nan nan
275 274 275 276 276 277 279 285 286 285 285 284 288 290 296 298 298 298 297 294 275 270 272 273 283 298 308 314 314 326 329 331 nan nan nan nan nan nan nan nan nan nan
281 274 274 269 272 276 280 282 281 282 281 281 280 289 291 295 298 299 298 298 286 276 278 283 290 299 304 308 316 326 329 333 331 334 nan nan nan nan nan nan nan nan
284 274 269 267 273 274 279 279 281 281 278 275 282 286 289 294 299 295 292 296 286 279 279 284 288 303 302 304 315 324 328 317 327 331 338 nan nan nan nan nan nan nan
290 284 278 277 278 274 277 278 275 276 274 277 278 278 281 288 294 293 291 294 290 278 279 283 288 299 303 309 316 325 328 323 325 330 333 332 333 nan nan nan nan nan
313 303 300 293 284 280 284 276 273 271 271 274 274 273 279 282 286 287 287 293 291 280 279 282 286 294 302 305 317 322 324 327 326 326 327 329 333 nan nan nan nan nan
336 322 317 313 302 281 279 271 269 268 269 273 272 274 278 278 277 277 283 290 288 282 279 282 288 298 306 302 308 314 320 321 321 319 322 326 331 335 nan nan nan nan
345 340 340 330 314 298 290 278 272 273 272 270 273 277 277 275 273 271 279 289 286 279 278 281 287 297 306 308 306 311 317 314 311 312 316 322 329 nan nan nan nan nan
349 354 347 333 320 309 294 289 286 278 277 277 275 277 274 266 263 269 272 279 278 273 275 280 286 292 297 303 308 310 312 310 306 307 312 319 331 nan nan nan nan nan
350 347 342 335 318 308 308 309 305 298 293 286 282 285 277 270 264 267 267 267 269 269 270 273 279 285 294 299 302 306 303 305 304 304 312 323 332 337 341 347 349 348
337 331 331 331 327 318 314 313 312 309 301 295 296 294 282 274 267 266 267 268 266 265 268 272 276 282 287 294 297 302 300 297 301 306 316 327 331 334 341 349 351 352
321 320 322 326 328 328 322 315 309 307 306 307 307 303 296 287 277 275 275 279 273 269 269 271 272 270 290 309 304 299 300 297 300 311 321 329 330 333 340 346 351 351
309 314 315 322 328 328 323 318 313 306 307 310 310 307 304 297 290 291 289 283 278 273 274 273 270 270 298 301 308 309 300 299 304 310 318 324 328 338 343 343 345 347
311 307 310 318 320 325 324 321 317 316 316 314 310 308 304 299 303 304 297 288 277 272 273 276 273 281 294 300 305 309 306 300 299 305 311 320 330 340 343 342 341 341
306 306 310 311 318 319 315 314 319 324 326 321 317 311 306 310 312 306 299 291 285 284 282 276 268 283 292 299 303 306 309 303 296 305 308 318 330 337 341 341 340 339
304 309 313 313 310 310 310 312 317 325 327 324 319 315 317 316 310 307 301 295 292 288 278 272 273 280 292 296 300 305 307 303 296 305 313 322 332 334 335 339 340 340
298 308 312 305 302 304 306 309 313 315 320 320 320 324 325 320 311 306 302 297 292 285 277 273 267 284 290 295 299 303 303 301 294 302 312 324 331 334 335 338 339 336
297 302 302 298 298 299 304 307 308 310 315 314 315 318 320 317 311 305 303 298 290 285 282 277 270 286 290 293 299 300 301 288 294 304 314 323 329 331 330 331 332 332
291 297 297 297 297 300 304 306 306 305 304 303 310 313 313 317 316 309 301 296 292 287 288 281 273 282 292 294 296 300 290 286 295 302 312 321 325 325 324 324 325 328
285 289 291 294 297 304 305 301 298 295 298 299 304 304 307 311 309 304 300 295 294 290 289 282 277 279 293 291 293 296 295 291 293 300 311 316 316 315 314 317 323 330
277 284 289 293 297 300 296 292 290 289 286 286 290 294 300 300 301 302 298 295 294 289 285 285 275 277 289 289 291 295 295 286 289 293 303 307 306 307 308 312 315 322
271 279 284 289 294 292 286 284 277 272 275 278 279 281 285 289 293 296 299 294 289 286 275 280 280 273 283 288 289 293 298 286 283 290 298 301 300 302 303 306 310 313